Showing default

PISAT, 41784

Orbit data source: Space-Track

PISAT, 41784 is a payload satellite owned by PES Univ. (IN) in SSO that was launched on Mon, 26 Sep 2016 UTC via a PSLV launch vehicle from the Sirharikota (SRI). Payload-class satellites include a variety of spacecraft equipped with specific instruments for various scientific and technological missions. These include communications satellites like Starlink; space stations such as the ISS; scientific satellites like the Hubble; Earth observation satellites from companies like Planet Labs, Umbra, and HawkEye 360; GPS; miniature CubeSats for education and research; and military/defense satellites.

Loading next visibility...
Identifier
41784, 2016-059B
Orbit
SSO
Country
Flag of ININ / IND
Related business
Manufacturer
PES Univ.
Mission
Operational Amateur Imaging
Bus & Motor
PISAT, Unknown motor
Mass
5.25 kg wet, 5.25 kg dry
Launch date (UTC)
2016-09-26 (9 years ago)
Launch vehicle
PSLV
Launch site
Sirharikota (SRI)
Object type
Payload
Rocket body
Debris
Shape & HBR
Box, 0.1 m
Radar Cross Section
0.063 m², Medium (>0.1 m² and < 1m²)

Expand to show TLE details & history
Last TLE update: 15 hours ago

TLE from 15 hours ago
0 PISAT
1 41784U 16059B   26036.94164803  .00001726  00000-0  30292-3 0  9992
2 41784  97.8178  43.0661 0027684 264.7535  95.0512 14.68688414500473
Epoch: 2026-02-05T22:35Z
TLE epoch observation values (Epoch: 2026-02-05T22:35:58.389Z)
Latitude
-0.00002°
Longitude
-72.01383°
Altitude
670.037 km
Speed
7.521 km/s
True Right ascension
02h 52m 15s
True Declination
0° 00' 00"
Sunlit
Object was in daylight at epoch
Visualization orbit readout
Latitude
Unknown
Longitude
Unknown
Altitude
Unknown
Speed
Unknown
Apparent Right ascension
Unknown
Apparent Declination
Unknown
Sunlit
N/A
Visualization observer readout
Local Sidereal Time
15:38:27
Azimuth
Unknown
Elevation
Unknown
Doppler factor
Unknown
Orbital elements
Apogee altitude
681.801 km
Perigee altitude
642.82 km
Semi-major axis
7,040.448 km
Eccentricity
0.00277
Inclination
97.8178°
RAAN
43.0661°
Arg. of periapsis
264.7535°
True anomaly
95.36711°
Mean anomaly
95.0512°
Eccentric anomaly
95.20916°
Mean motion
3.67403 °/min
Orbital period
97.99 mins
BSTAR
0.00030292
Loading maneuver chart data...
Computing Atmospheric mass density...
Loading historical data...
Loading historical data...
Loading historical data...
Loading historical data...
Loading historical data...
Loading historical data...
Loading historical data...

Documentation

Showing up to 5 results
|